Weather History for Greenville, MS

Change the Weather History Date:

Thursday, November 4, 2010

  Actual Average Record
Temperature  
Mean Temperature 54 °F 58 °F  
Max Temperature 62 °F 70 °F 87 °F (1922)
Min Temperature 46 °F 47 °F 23 °F (1966)
Degree Days  
Heating Degree Days 11 8  
Month to date heating degree days 18 30  
Since 1 July heating degree days 93 144  
Cooling Degree Days 0 1  
Month to date cooling degree days 3 4  
Year to date cooling degree days 2663 2178  
Growing Degree Days 4 (Base 50)    
Moisture  
Dew Point 38 °F    
Average Humidity 68    
Maximum Humidity 100    
Minimum Humidity 36    
Precipitation  
Precipitation 0.00 in 0.15 in 2.36 in (1925)
Month to date precipitation 2.15 0.56  
Year to date precipitation 25.75 42.52  
Sea Level Pressure  
Sea Level Pressure 29.98 in    
Wind  
Wind Speed 12 mph (NNW)    
Max Wind Speed 25 mph    
Max Gust Speed 32 mph    
Visibility 10 miles    
Events      
T = Trace of Precipitation, MM = Missing Value Source: NWS Daily Summary

Daily Weather History Graph

Daily Weather History Graph

Search for Another Location

Airport:

Trip Planner

Search our weather history database for the weather conditions in past years. The results will help you decide how hot, cold, wet, or windy it might be!

Date:

Astronomy

Nov. 04, 2010 Rise Set
Actual Time 7:25 AM CDT 6:09 PM CDT
Civil Twilight 6:59 AM CDT 6:35 PM CDT
Nautical Twilight 6:29 AM CDT 7:04 PM CDT
Astronomical Twilight 6:00 AM CDT 7:33 PM CDT
Moon 5:39 AM CDT (11/4) 4:53 PM CDT (11/4)
Length of Visible Light 11h 35m
Length of Day
10h 43m
Waning Crescent, 3% of the Moon is Illuminated
Nov 4
Waning Crescent
Nov 5
New
Nov 13
First Quarter
Nov 21
Full
Nov 28
Last Quarter

Hourly Weather History & Observations

Time (CDT) Temp. Windchill Dew Point Humidity Pressure Visibility Wind Dir Wind Speed Gust Speed Precip Events Conditions
12:53 AM 54.0 °F - 52.0 °F 93% 29.97 in 6.0 mi NNW 9.2 mph - N/A   Clear
1:53 AM 52.0 °F - 51.1 °F 97% 29.97 in 5.0 mi NNW 5.8 mph - N/A   Clear
2:53 AM 52.0 °F - 46.9 °F 83% 29.97 in 10.0 mi North 9.2 mph - N/A   Clear
3:53 AM 52.0 °F - 41.0 °F 66% 29.97 in 10.0 mi North 12.7 mph - N/A   Clear
4:53 AM 50.0 °F - 39.9 °F 68% 29.98 in 10.0 mi North 9.2 mph - N/A   Clear
5:53 AM 50.0 °F - 37.0 °F 61% 29.99 in 10.0 mi NNW 9.2 mph - N/A   Clear
6:53 AM 46.0 °F 41.9 °F 37.9 °F 73% 29.99 in 10.0 mi NNW 8.1 mph - N/A   Clear
7:53 AM 48.0 °F - 37.9 °F 68% 30.00 in 10.0 mi NNW 8.1 mph - N/A   Clear
8:53 AM 52.0 °F - 36.0 °F 54% 30.02 in 10.0 mi NNW 12.7 mph - N/A   Clear
9:53 AM 55.0 °F - 37.0 °F 51% 30.02 in 10.0 mi North 18.4 mph - N/A   Clear
10:53 AM 57.9 °F - 37.9 °F 47% 30.01 in 10.0 mi NNW 15.0 mph - N/A   Clear
11:53 AM 59.0 °F - 37.0 °F 44% 30.01 in 10.0 mi North 21.9 mph - N/A   Clear
12:53 PM 60.1 °F - 37.0 °F 42% 29.99 in 10.0 mi North 16.1 mph 25.3 mph N/A   Clear
1:53 PM 62.1 °F - 37.9 °F 41% 29.96 in 10.0 mi North 17.3 mph - N/A   Clear
2:53 PM 61.0 °F - 37.9 °F 42% 29.95 in 10.0 mi NW 17.3 mph 25.3 mph N/A   Partly Cloudy
3:53 PM 61.0 °F - 35.1 °F 38% 29.95 in 10.0 mi NW 18.4 mph 26.5 mph N/A   Clear
4:53 PM 61.0 °F - 35.1 °F 38% 29.94 in 10.0 mi NW 13.8 mph - N/A   Clear
5:53 PM 59.0 °F - 32.0 °F 36% 29.95 in 10.0 mi NW 13.8 mph 23.0 mph N/A   Clear
6:53 PM 53.1 °F - 36.0 °F 52% 29.96 in 10.0 mi NW 8.1 mph - N/A   Clear
7:53 PM 52.0 °F - 36.0 °F 54% 29.98 in 10.0 mi NW 8.1 mph - N/A   Clear
8:53 PM 52.0 °F - 34.0 °F 50% 29.99 in 10.0 mi NW 8.1 mph - N/A   Scattered Clouds
9:53 PM 50.0 °F - 35.1 °F 57% 30.00 in 10.0 mi WNW 9.2 mph - N/A   Clear
10:53 PM 51.1 °F - 33.1 °F 50% 30.00 in 10.0 mi WNW 10.4 mph - N/A   Mostly Cloudy
11:53 PM 50.0 °F - 32.0 °F 50% 30.01 in 10.0 mi NW 10.4 mph - N/A   Clear